Location: State Line Observation Field
(36.5320°N, 77.5360°W)
Time: 02:37:23
(UTC-04:00)

KKS-1 - Visible Passes

Search period start: 09 May 2021 00:00
Search period end: 19 May 2021 00:00
Orbit: 636 x 649 km, 98.3° (Epoch: 07 May)

Date Brightness Start Highest point End Pass type
(mag) Time Alt. Az. Time Alt. Az. Time Alt. Az.
09 May ? 21:12:24 10° NE 21:15:15 17° E 21:15:26 17° E visible
09 May ? 22:47:48 10° N 22:51:53 37° WNW 22:53:05 31° WSW visible
10 May ? 21:35:50 10° NE 21:39:46 31° E 21:40:09 30° ESE visible
10 May ? 23:12:47 10° NNW 23:16:04 21° WNW 23:17:48 17° W visible
11 May ? 21:59:49 10° NNE 22:04:11 60° E 22:04:53 52° SE visible
11 May ? 23:38:40 10° NW 23:40:10 12° WNW 23:41:40 10° W visible
12 May ? 22:24:07 10° N 22:28:32 71° WNW 22:29:36 49° SW visible
13 May ? 21:13:18 10° NE 21:16:10 17° E 21:16:40 17° ESE visible
13 May ? 22:48:43 10° N 22:52:48 37° WNW 22:54:19 28° WSW visible
14 May ? 21:36:44 10° NE 21:40:40 31° E 21:41:23 29° ESE visible
14 May ? 23:13:42 10° NNW 23:16:58 21° WNW 23:19:01 15° WSW visible
15 May ? 22:00:43 10° NNE 22:05:06 60° ESE 22:06:06 46° SSE visible
15 May ? 23:39:36 10° NW 23:41:04 11° WNW 23:42:31 10° W visible
16 May ? 22:25:02 10° N 22:29:26 71° WNW 22:30:49 42° SW visible
17 May ? 21:14:10 10° NE 21:17:04 17° E 21:17:52 16° ESE visible
17 May ? 22:49:38 10° N 22:53:41 37° WNW 22:55:31 25° WSW visible
18 May ? 21:37:37 10° NE 21:41:34 31° E 21:42:35 28° ESE visible
18 May ? 23:14:37 10° NNW 23:17:52 21° WNW 23:20:14 14° WSW visible
